GW4151 Weather Reports


Display with metric or nautical units.
time (UTC)temp
F
wind
direction
speed
MPH
gust
MPH
rain 1hr
in
rain 24hr
in
rain mn
in
humidity
%
barometer
mb
20260904013600 72 160 0.0 1.0 0.00 0.24 0.24 97 994.5
20260904012055 73 176 0.0 0.0 0.00 0.24 0.24 97 994.6
20260904010552 73 184 0.0 0.0 0.00 0.24 0.24 96 994.5
20260904005049 73 180 0.0 1.0 0.00 0.24 0.24 96 994.3
20260904003547 73 173 0.0 0.0 0.00 0.24 0.24 96 994.2
20260904002044 74 193 0.0 0.0 0.00 0.24 0.24 94 994.1
20260904000538 75 194 0.0 0.0 0.00 0.24 0.24 93 993.7
20260903235037 76 181 0.0 0.0 0.00 0.24 0.24 92 993.5
20260903233535 77 36 3.0 3.0 0.00 0.24 0.24 91 993.6
20260903232032 78 231 1.0 2.0 0.00 0.24 0.24 89 993.6
20260903230529 78 154 2.0 4.0 0.00 0.24 0.24 88 993.4
20260903225027 78 186 0.0 1.0 0.00 0.24 0.24 88 993.5
20260903223524 79 189 1.0 1.0 0.00 0.24 0.24 86 993.3
20260903222023 80 187 0.0 0.0 0.00 0.24 0.24 85 993.4
20260903220521 81 166 2.0 2.0 0.00 0.24 0.24 82 993.5
20260903215021 78 176 0.0 0.0 0.00 0.24 0.24 88 993.7
20260903213516 80 185 0.0 1.0 0.00 0.24 0.24 85 993.9
20260903212014 79 174 2.0 2.0 0.00 0.24 0.24 87 993.9
20260903210512 77 189 0.0 1.0 0.00 0.24 0.24 93 993.9
20260903205008 76 199 1.0 2.0 0.00 0.24 0.24 94 993.5
20260903203507 75 117 2.0 3.0 0.00 0.24 0.24 96 993.2
20260903202003 74 180 0.0 0.0 0.00 0.24 0.24 97 993.5
20260903200503 74 283 2.0 3.0 0.00 0.24 0.24 96 994.1
20260903195001 74 210 0.0 1.0 0.00 0.24 0.24 95 994.1
20260903193500 75 293 1.0 2.0 0.00 0.24 0.24 94 994.5
20260903191958 75 197 0.0 1.0 0.00 0.24 0.24 93 994.7
20260903190454 74 283 2.0 2.0 0.05 0.24 0.24 94 994.3
20260903184949 73 256 2.0 3.0 0.12 0.23 0.23 94 995.5
20260903183447 73 275 3.0 4.0 0.19 0.20 0.20 93 995.8
20260903181948 74 312 3.0 6.0 0.05 0.17 0.17 90 996.1
20260903180442 77 27 2.0 8.0 0.00 0.16 0.16 83 996.5
20260903174941 79 336 3.0 10.0 0.00 0.16 0.16 79 996.0
20260903173437 79 305 4.0 9.0 0.00 0.16 0.16 83 995.5
20260903171935 80 210 2.0 6.0 0.00 0.16 0.16 84 994.7
20260903170430 80 320 6.0 8.0 0.00 0.16 0.16 85 994.5
20260903164930 81 268 7.0 9.0 0.00 0.16 0.16 84 993.8
20260903163427 82 268 3.0 7.0 0.00 0.16 0.16 82 993.1
20260903161926 83 217 6.0 8.0 0.00 0.16 0.16 80 992.8
20260903160422 83 156 4.0 8.0 0.00 0.16 0.16 79 993.1
20260903154918 83 156 2.0 8.0 0.00 0.16 0.16 81 993.1
20260903153415 83 202 6.0 8.0 0.00 0.16 0.16 80 993.5
20260903151914 84 232 4.0 6.0 0.00 0.16 0.16 79 993.5
20260903150410 84 200 2.0 3.0 0.00 0.16 0.16 81 993.9
20260903144905 84 185 2.0 3.0 0.00 0.16 0.16 82 993.6
20260903143405 84 250 1.0 3.0 0.00 0.16 0.16 81 993.6
20260903141902 84 194 2.0 4.0 0.00 0.16 0.16 83 993.5
20260903140400 85 178 4.0 6.0 0.00 0.16 0.16 80 993.3
20260903134855 83 180 1.0 4.0 0.00 0.16 0.16 84 993.3
20260903133351 80 225 3.0 3.0 0.00 0.16 0.16 90 993.5
20260903131847 77 196 0.0 3.0 0.00 0.16 0.16 97 993.4
20260903130346 76 182 1.0 2.0 0.00 0.16 0.16 99 993.5
20260903124845 75 182 0.0 1.0 0.00 0.16 0.16 99 993.4
20260903123340 75 162 0.0 0.0 0.00 0.16 0.16 99 993.5
20260903121839 74 190 1.0 2.0 0.00 0.16 0.16 99 993.7
20260903120334 74 189 0.0 1.0 0.00 0.16 0.16 99 993.8
20260903114833 74 192 0.0 2.0 0.00 0.16 0.16 99 993.7
20260903113332 74 191 2.0 2.0 0.00 0.16 0.16 99 993.7
20260903111828 74 155 0.0 1.0 0.73 0.16 0.16 99 993.7
20260903110326 72 164 0.0 0.0 0.00 0.00 0.00 99 993.6
20260903104826 71 164 0.0 0.0 0.00 0.00 0.00 99 993.7
20260903103325 72 167 0.0 0.0 0.00 0.00 0.00 99 993.5
20260903101820 71 165 0.0 0.0 0.00 0.00 0.00 99 993.4
20260903100317 72 167 0.0 0.0 0.00 0.00 0.00 99 993.6
20260903094816 72 168 0.0 0.0 0.00 0.00 0.00 99 993.6
20260903093313 72 178 0.0 0.0 0.00 0.00 0.00 99 993.5
20260903091813 71 169 0.0 0.0 0.00 0.00 0.00 99 993.6
20260903090308 72 170 0.0 0.0 0.00 0.00 0.00 99 993.7
20260903084805 72 172 0.0 0.0 0.00 0.00 0.00 99 993.5
20260903083301 72 173 0.0 0.0 0.00 0.00 0.00 99 993.3
20260903081756 72 179 0.0 0.0 0.00 0.00 0.00 99 993.5
20260903080251 72 181 0.0 0.0 0.00 0.00 0.00 99 993.5
20260903074750 72 183 0.0 0.0 0.00 0.00 0.00 99 993.6
20260903073248 73 165 0.0 0.0 0.00 0.00 0.00 99 993.3
20260903071749 72 170 0.0 0.0 0.00 0.00 0.00 99 993.5
20260903070245 73 170 0.0 0.0 0.00 0.00 0.00 99 993.4
20260903064744 72 170 0.0 0.0 0.00 0.00 0.00 99 993.3
20260903063243 73 180 0.0 0.0 0.00 0.00 0.00 99 993.4
20260903061740 73 174 0.0 0.0 0.00 0.00 0.00 99 993.2
20260903060235 73 234 0.0 0.0 0.00 0.00 0.00 99 993.4
20260903054732 73 172 0.0 0.0 0.00 0.00 0.00 99 993.3
20260903053230 73 172 0.0 0.0 0.00 0.00 0.00 99 993.2
20260903051728 73 172 0.0 0.0 0.00 0.00 0.00 99 993.1
20260903050224 74 171 0.0 0.0 0.00 0.00 0.00 98 993.2
20260903044723 73 196 0.0 0.0 0.00 0.00 0.00 98 993.0
20260903043220 74 92 0.0 0.0 0.00 0.00 0.00 98 992.9
20260903041717 74 92 0.0 0.0 0.00 0.00 0.00 98 993.0
20260903040213 74 92 0.0 0.0 0.00 0.00 0.00 98 992.9
20260903034710 75 92 0.0 0.0 0.00 0.00 0.00 97 992.9
20260903033207 75 92 0.0 0.0 0.00 0.00 0.00 97 992.8
20260903031705 75 92 0.0 0.0 0.00 0.00 0.00 97 993.2
20260903030202 76 327 1.0 2.0 0.00 0.00 0.00 94 993.0
20260903024700 76 167 0.0 1.0 0.00 0.00 0.00 93 993.0
20260903023155 77 166 0.0 1.0 0.00 0.00 0.00 91 992.9
20260903021655 77 186 0.0 1.0 0.00 0.00 0.00 91 993.0
20260903020150 78 162 0.0 1.0 0.00 0.00 0.00 90 992.5
20260903014648 79 235 1.0 1.0 0.00 0.00 0.00 87 993.0